STARLINK-5667, 55337

Orbit data source: Space-Track

STARLINK-5667, 55337 is a payload satellite owned by SpaceX/Seattle (US) in LEO that was launched on Thu, 26 Jan 2023 UTC via an FALCON 9 launch vehicle from the Air Force Eastern Test Range (AFETR). Payload-class satellites include a variety of spacecraft equipped with specific instruments for various scientific and technological missions. These include communications satellites like Starlink; space stations such as the ISS; scientific satellites like the Hubble; Earth observation satellites from companies like Planet Labs, Umbra, and HawkEye 360; GPS; miniature CubeSats for education and research; and military/defense satellites.

Loading next visibility...
Identifier
55337, 2023-013G
Orbit
LEO
Country
Flag of USUS
Related business
Manufacturer
SpaceX/Seattle
Mission
Operational Commercial Communications
Bus & Motor
STARLINK, Unknown motor
Mass
305 kg wet, ~290 kg dry
Launch date (UTC)
2023-01-26 (3 years ago)
Launch vehicle
FALCON 9
Launch site
Air Force Eastern Test Range (AFETR)
Object type
Payload
Rocket body
Debris
Shape & HBR
Box + 1 Pan, 10.1 m
Radar Cross Section
13.562 m², Large (>1 m²)

Expand to show TLE details & history
Last TLE update: 20 hours ago

TLE from 20 hours ago
0 STARLINK-5667
1 55337U 23013G   25349.16077218  .00001254  00000-0  10792-3 0  9991
2 55337  43.0061  26.6239 0001346 269.0480  91.0208 15.02520286159141
Epoch: 2025-12-15T03:51Z
TLE epoch observation values (Epoch: 2025-12-15T03:51:30.716Z)
Latitude
-0.00003°
Longitude
-115.31743°
Altitude
558.923 km
Speed
7.584 km/s
True Right ascension
01h 46m 29s
True Declination
0° 00' 00"
Sunlit
Object was in full shadow at epoch
Visualization orbit readout
Latitude
Unknown
Longitude
Unknown
Altitude
Unknown
Speed
Unknown
Apparent Right ascension
Unknown
Apparent Declination
Unknown
Sunlit
N/A
Visualization observer readout
Local Sidereal Time
22:51:22
Azimuth
Unknown
Elevation
Unknown
Doppler factor
Unknown
Orbital elements
Apogee altitude
561.985 km
Perigee altitude
560.117 km
Semi-major axis
6,939.188 km
Eccentricity
0.00013
Inclination
43.0061°
RAAN
26.6239°
Arg. of periapsis
269.048°
True anomaly
91.03622°
Mean anomaly
91.0208°
Eccentric anomaly
91.02851°
Mean motion
3.75474 °/min
Orbital period
95.88 mins
BSTAR
0.00010792
Loading maneuver chart data...
Computing Atmospheric mass density...
Loading historical data...
Loading historical data...
Loading historical data...
Loading historical data...
Loading historical data...
Loading historical data...
Loading historical data...

Documentation

Showing up to 5 results
|